Regional Weather Roundup
Issued by NWS

Home | Current Version | Previous Version | Graphics & Text | Print | Product List | Glossary On
Versions: 1 2 3 4 5 6 7 8 9 10 11 12 13 14 15 16 17 18 19 20 21 22 23 24 25 26 27 28 29 30 31 32 33 34 35 36 37 38 39 40 41 42 43 44 45 46 47 48 49 50
000
ASUS43 KIND 230809
RWRIN

WEATHER ROUNDUP FOR INDIANA
NATIONAL WEATHER SERVICE INDIANAPOLIS IN
400 AM EDT SAT AUG 23 2014

NOTE: "FAIR" INDICATES FEW OR NO CLOUDS BELOW 12,000 FEET WITH NO
SIGNIFICANT WEATHER AND/OR OBSTRUCTIONS TO VISIBILITY.

* - STATION DOES NOT REPORT WEATHER SUCH AS PRECIPITATION OR FOG.

+ - STATION NOT QUALITY CONTROLLED BY THE NATIONAL WEATHER SERVICE.
    USE DATA WITH CAUTION...ESPECIALLY DEWPOINT AND RELATIVE
    HUMIDITY OBSERVATIONS.

INZ001>003-010>013-019-020-230900-
NORTHWEST INDIANA

CITY           SKY/WX    TMP DP  RH WIND       PRES   REMARKS
GARY /AIRPORT/ FOG       73  72  96 CALM      29.97F VSB 3/4
KNOX *+        MOCLDY    68  66  93 CALM      29.97S VSB<1/4
LA PORTE +     FOG       68  68 100 CALM      29.99S VSB 1
MICHIGAN CITY+ PTCLDY    68  68 100 CALM      29.98S FOG
MONTICELLO +   PTCLDY    71  71 100 CALM      29.97S FOG
RENSSELAER +   FOG       66  66 100 CALM      29.98R VSB 1/4
VALPARAISO     FOG       69  68  96 CALM      29.98S VSB 3/4

$$

LMZ046-743>745-230900-
SOUTHERN LAKE MICHIGAN

STATION/POSITION TIME  TEMP WIND        PRES
                       AIR  DIR/SP/G
                 (UTC) (F)  (DEG/KT/KT) (MB)
MICHIGAN CITY    0800   75  180/  4/  5   N/A

$$

INZ004-005-014>016-021>024-230900-
NORTH CENTRAL INDIANA

CITY           SKY/WX    TMP DP  RH WIND       PRES   REMARKS
GOSHEN         FOG       73  70  90 NE3       29.98S VSB 1/2
LOGANSPORT +   FOG       68  66  94 CALM      29.98S VSB<1/4
PERU/GRISSOM   CLEAR     70  70 100 E3        29.98S FOG
ROCHESTER +    FOG       70  70 100 CALM      29.98S VSB 3/4
SOUTH BEND     CLEAR     73  71  93 CALM      29.98S FOG
WARSAW +       CLEAR     72  72 100 CALM      29.98F FOG

$$

INZ006>009-017-018-025>027-230900-
NORTHEAST INDIANA

CITY           SKY/WX    TMP DP  RH WIND       PRES   REMARKS
ANGOLA *+      PTCLDY    72  70  94 CALM      30.00S
AUBURN +       CLEAR     72  68  88 E3        30.00S FOG
FORT WAYNE     PTCLDY    71  69  93 CALM      29.98F
HUNTINGTON +   FOG       70  70 100 CALM      29.98S VSB 1/4

$$

INZ028-029-035-036-043>045-051>053-230900-
WEST CENTRAL INDIANA

CITY           SKY/WX    TMP DP  RH WIND       PRES   REMARKS
GREENCASTLE +  CLEAR     70  70 100 CALM      29.99S FOG
LAFAYETTE      FOG       69  69 100 CALM      29.97R VSB 1/2
TERRE HAUTE    FOG       71  70  96 CALM      29.97S VSB 1/4

$$

INZ030>032-037>040-046>048-054>057-064-065-230900-
CENTRAL INDIANA

CITY           SKY/WX    TMP DP  RH WIND       PRES   REMARKS
CP ATTERBURY + FOG       68  64  88 CALM      29.99S VSB 3/4
FRANKFORT +    CLEAR    N/A N/A N/A CALM      29.99S FOG
INDIANAPOLIS   CLEAR     71  69  93 S3        29.97F
-EAGLE CREEK   CLEAR     71  69  93 CALM      29.97F
KOKOMO *+      CLEAR     68  66  94 SE5       29.97F
MARION +       CLOUDY    67  66  98 CALM      29.99S FOG
MT COMFORT *+  CLEAR     68 N/A N/A SE3       29.99S
SHELBYVILLE    PTCLDY    70  67  90 CALM      29.98S FOG
ZIONSVILLE +   FOG       68  65  91 CALM      29.99S VSB 3/4

$$

INZ033-034-041-042-049-050-058-059-230900-
EAST CENTRAL INDIANA

CITY           SKY/WX    TMP DP  RH WIND       PRES   REMARKS
MUNCIE         CLEAR     70  68  93 CALM      29.99S

$$

INZ060-061-067>069-081>083-085>088-230900-
SOUTHWEST INDIANA

CITY           SKY/WX    TMP DP  RH WIND       PRES   REMARKS
EVANSVILLE     CLOUDY    76  71  85 SE3       29.97F

$$

INZ062-063-066-070>080-084-089>092-230900-
SOUTH CENTRAL AND SOUTHEAST INDIANA

CITY           SKY/WX    TMP DP  RH WIND       PRES   REMARKS
BLOOMINGTON    FOG       72  70  93 CALM      29.98F VSB 1/4

$$



USA.gov is the U.S. government's official web portal to all federal, state and local government web resources and services.